EW4438 Weather Reports


Display with metric or nautical units.
time (UTC)temp
F
wind
direction
speed
MPH
gust
MPH
rain 1hr
in
rain 24hr
in
rain mn
in
humidity
%
barometer
mb
20260507084556 55 322 3.0 5.0 0.00 0.00 0.00 77 1029.3
20260507083540 55 337 3.0 6.0 0.00 0.00 0.00 76 1029.0
20260507082542 55 337 2.0 5.0 0.00 0.00 0.00 76 1029.3
20260507080657 55 337 4.0 5.0 0.00 0.00 0.00 76 1029.0
20260507075644 55 351 3.0 6.0 0.00 0.00 0.00 76 1029.3
20260507074643 55 351 4.0 6.0 0.00 0.00 0.00 77 1029.3
20260507073641 55 337 3.0 5.0 0.00 0.00 0.00 78 1029.3
20260507072642 55 337 3.0 4.0 0.00 0.00 0.00 79 1029.0
20260507072558 55 337 3.0 4.0 0.00 0.00 0.00 79 1029.0
20260507071542 55 337 2.0 4.0 0.00 0.00 0.00 80 1029.0
20260507070641 55 337 4.0 5.0 0.00 0.00 0.00 80 1029.0
20260507064643 56 360 4.0 6.0 0.00 0.00 0.00 80 1029.0
20260507063657 56 304 4.0 6.0 0.00 0.00 0.00 80 1029.0
20260507062644 56 337 3.0 4.0 0.00 0.00 0.00 80 1029.0
20260507061643 56 315 3.0 5.0 0.00 0.00 0.00 80 1029.0
20260507055756 56 305 3.0 4.0 0.00 0.00 0.00 81 1029.0
20260507054843 56 302 5.0 9.0 0.00 0.00 0.00 81 1029.0
20260507053842 56 337 3.0 4.0 0.00 0.00 0.00 81 1029.0
20260507052942 56 337 4.0 5.0 0.00 0.00 0.00 80 1029.0
20260507051941 56 356 3.0 5.0 0.00 0.00 0.00 79 1029.0
20260507045042 57 360 1.0 4.0 0.00 0.00 0.00 78 1029.0
20260507044044 57 346 4.0 6.0 0.00 0.00 0.00 77 1029.0
20260507043143 57 353 5.0 8.0 0.00 0.00 0.00 77 1029.0
20260507042241 57 360 4.0 5.0 0.00 0.00 0.00 76 1029.0
20260507041257 58 352 3.0 5.0 0.00 0.00 0.00 76 1028.6
20260507040341 58 349 6.0 9.0 0.00 0.00 0.00 76 1028.3
20260507035344 58 351 5.0 8.0 0.00 0.00 0.00 75 1028.3
20260507033342 59 337 5.0 7.0 0.00 0.00 0.00 75 1027.9
20260507032342 59 337 5.0 7.0 0.00 0.00 0.00 75 1027.9
20260507030442 60 360 4.0 6.0 0.00 0.00 0.00 74 1027.6
20260507025443 60 360 4.0 6.0 0.00 0.00 0.00 74 1027.6
20260507023442 61 360 3.0 5.0 0.00 0.00 0.00 73 1027.2
20260507022443 61 360 3.0 5.0 0.00 0.00 0.00 71 1027.2
20260507020543 62 360 6.0 7.0 0.00 0.00 0.00 68 1027.2
20260507015544 64 356 3.0 6.0 0.00 0.00 0.00 68 1027.2
20260507014557 64 360 4.0 6.0 0.00 0.00 0.00 67 1026.9
20260507013643 64 360 6.0 8.0 0.00 0.00 0.00 67 1026.9
20260507012742 65 360 5.0 8.0 0.00 0.00 0.00 66 1026.9
20260507010743 66 341 5.0 6.0 0.00 0.00 0.00 64 1026.9
20260507005743 65 337 5.0 6.0 0.00 0.00 0.00 63 1026.9
20260507003842 67 337 4.0 6.0 0.00 0.00 0.00 62 1026.6
20260507002842 67 360 3.0 4.0 0.00 0.00 0.00 63 1026.6
20260507001842 68 360 0.0 1.0 0.00 0.00 0.00 63 1026.6
20260507000900 67 360 0.0 3.0 0.00 0.00 0.00 61 1026.6
20260506235844 69 337 3.0 5.0 0.00 0.00 0.00 60 1026.6
20260506233842 69 337 3.0 4.0 0.00 0.00 0.00 57 1026.3
20260506231940 68 360 0.0 0.0 0.00 0.00 0.00 59 1026.6
20260506230957 68 22 0.0 0.0 0.00 0.00 0.00 58 1026.6
20260506230043 70 73 0.0 0.0 0.00 0.00 0.00 58 1026.6
20260506225941 70 90 0.0 0.0 0.00 0.00 0.00 58 1026.6
20260506224942 70 311 0.0 0.0 0.00 0.00 0.00 56 1026.6
20260506224041 72 231 0.0 0.0 0.00 0.00 0.00 57 1026.9
20260506223042 75 180 0.0 0.0 0.00 0.00 0.00 59 1026.9
20260506222043 67 45 0.0 3.0 0.00 0.00 0.00 61 1026.9
20260506215043 68 308 0.0 0.0 0.00 0.00 0.00 52 1026.9
20260506214043 74 93 0.0 0.0 0.00 0.00 0.00 55 1027.2
20260506213142 68 154 1.0 4.0 0.00 0.00 0.00 53 1027.2
20260506212141 68 103 1.0 3.0 0.00 0.00 0.00 52 1027.6
20260506211144 69 180 2.0 4.0 0.00 0.00 0.00 60 1027.6
20260506205243 65 337 0.0 0.0 0.00 0.00 0.00 65 1027.9
20260506204340 65 293 0.0 0.0 0.00 0.00 0.00 66 1027.9
20260506203343 65 337 0.0 0.0 0.00 0.00 0.00 66 1027.9
20260506202441 64 337 2.0 3.0 0.00 0.00 0.00 67 1027.9
20260506201442 65 292 0.0 0.0 0.00 0.00 0.00 70 1028.3
20260506200442 63 360 0.0 0.0 0.00 0.00 0.00 72 1028.3
20260506194441 62 360 3.0 5.0 0.00 0.00 0.00 76 1028.6
20260506193443 61 360 0.0 3.0 0.00 0.00 0.00 75 1028.3
20260506192442 62 360 0.0 0.0 0.00 0.00 0.00 75 1028.3
20260506190544 62 22 0.0 0.0 0.00 0.00 0.00 74 1028.3
20260506185544 62 341 0.0 0.0 0.00 0.00 0.00 73 1028.3
20260506184542 61 337 2.0 4.0 0.00 0.00 0.00 73 1028.3
20260506184443 61 337 3.0 4.0 0.00 0.00 0.00 73 1028.3
20260506183542 61 337 0.0 0.0 0.00 0.00 0.00 73 1028.3
20260506180641 62 153 0.0 0.0 0.00 0.00 0.00 75 1028.3
20260506180543 62 180 0.0 1.0 0.00 0.00 0.00 76 1028.3
20260506180442 62 180 0.0 2.0 0.00 0.00 0.00 76 1028.3
20260506175444 60 270 0.0 0.0 0.00 0.00 0.00 75 1028.3
20260506174541 60 270 0.0 0.0 0.00 0.00 0.00 74 1028.3
20260506172542 61 270 4.0 6.0 0.00 0.00 0.00 75 1027.9
20260506171641 60 22 0.0 0.0 0.00 0.00 0.00 76 1028.0
20260506170642 60 360 1.0 3.0 0.00 0.00 0.00 78 1028.3
20260506165741 59 320 2.0 4.0 0.00 0.00 0.00 78 1028.3
20260506164743 59 337 3.0 4.0 0.00 0.00 0.00 78 1028.3
20260506163744 58 337 2.0 3.0 0.00 0.00 0.00 78 1028.3
20260506162743 59 22 0.0 0.0 0.00 0.00 0.00 76 1028.3
20260506161743 59 22 0.0 0.0 0.00 0.00 0.00 76 1027.9
20260506160744 59 22 1.0 3.0 0.00 0.00 0.00 76 1028.3
20260506155742 59 45 0.0 0.0 0.00 0.00 0.00 75 1027.6
20260506154742 60 112 0.0 0.0 0.00 0.00 0.00 77 1027.6
20260506153758 58 112 0.0 0.0 0.00 0.00 0.00 83 1027.6
20260506152842 57 303 1.0 3.0 0.00 0.00 0.00 86 1028.3
20260506151941 57 344 1.0 5.0 0.00 0.00 0.00 86 1028.3
20260506150943 56 360 2.0 4.0 0.00 0.00 0.00 86 1028.3
20260506145942 57 315 2.0 4.0 0.00 0.00 0.00 87 1028.3
20260506144943 56 360 1.0 3.0 0.00 0.00 0.00 88 1027.9
20260506143943 56 360 2.0 3.0 0.00 0.00 0.00 88 1028.3
20260506142942 57 337 0.0 3.0 0.00 0.00 0.00 87 1027.9
20260506141957 57 292 0.0 0.0 0.00 0.00 0.00 88 1027.6
20260506135942 57 292 1.0 4.0 0.00 0.00 0.00 88 1027.6
20260506134942 57 304 0.0 0.0 0.00 0.00 0.00 89 1027.6
20260506133943 57 315 0.0 0.0 0.00 0.00 0.00 89 1027.2
20260506132941 57 315 0.0 0.0 0.00 0.00 0.00 89 1027.2
20260506130956 57 315 0.0 0.0 0.00 0.00 0.00 89 1026.9
20260506125944 57 315 0.0 0.0 0.00 0.00 0.00 89 1026.9
20260506124042 57 315 0.0 0.0 0.00 0.00 0.00 88 1026.9
20260506122141 57 337 0.0 0.0 0.00 0.00 0.00 88 1026.9
20260506121143 57 337 0.0 0.0 0.00 0.00 0.00 88 1026.9
20260506120143 57 337 0.0 0.0 0.00 0.00 0.00 88 1026.9
20260506115141 57 315 1.0 3.0 0.00 0.00 0.00 88 1026.6
20260506113242 57 360 0.0 0.0 0.00 0.00 0.00 87 1026.6
20260506112341 57 360 0.0 0.0 0.00 0.00 0.00 87 1026.3
20260506111342 57 360 3.0 4.0 0.00 0.00 0.00 86 1026.3
20260506110342 57 337 0.0 0.0 0.00 0.00 0.00 87 1026.3
20260506105341 57 270 2.0 3.0 0.00 0.00 0.00 86 1025.9
20260506104340 57 360 0.0 0.0 0.00 0.00 0.00 86 1025.9
20260506103401 58 360 0.0 0.0 0.00 0.00 0.00 86 1025.6
20260506102442 58 360 0.0 1.0 0.00 0.00 0.00 86 1025.6
20260506100442 58 360 0.0 0.0 0.00 0.00 0.00 85 1025.6
20260506095541 58 360 0.0 0.0 0.00 0.00 0.00 85 1025.6
20260506093542 58 360 0.0 0.0 0.00 0.00 0.00 86 1025.6
20260506092543 58 360 0.0 0.0 0.00 0.00 0.00 85 1025.2
20260506092444 58 360 0.0 0.0 0.00 0.00 0.00 85 1025.2
20260506091540 58 360 0.0 0.0 0.00 0.00 0.00 85 1025.2
20260506090542 58 360 0.0 0.0 0.00 0.00 0.00 84 1025.2
20260506085545 58 360 0.0 0.0 0.00 0.00 0.00 84 1025.2